Location: Chiroubles
(46.1812°N, 4.6660°E)
Time: 18:18:10
(UTC+00:00)

USA 267 - Pass Details

Date: 15 August 2020
Orbit: 1101 x 1106 km, 123.0° (Epoch: 22 September)

Event Time Altitude Azimuth Distance (km) Brightness Sun altitude
Rises 23:16:15 0° 57° (ENE) 3,926 6.5 -29.8°
Reaches altitude 10° 23:18:51 10° 51° (NE) 2,968 5.9 -29.9°
Maximum altitude 23:24:55 43° 343° (NNW) 1,519 4.3 -30.0°
Drops below altitude 10° 23:31:00 10° 275° (W) 2,966 5.6 -30.1°
Sets 23:33:36 0° 269° (W) 3,923 6.2 -30.1°
